User: anonymous   Login
Location: �chenoz-la-M�line
(47.6009°N, 6.1354°E)
Time: 20:27:00
(UTC+00:00)
Language:

Cosmos 1980 - Orbit

View from above orbital plane
View from above orbital plane
View from above satellite
View from above satellite

Ground track
Ground track

The orbit data is extracted from the following two-line orbital elements,

1 19649U 88102A   21126.93454590  .00000204  00000-0  13086-3 0  9996
2 19649  71.0007 325.8306 0007012 303.6686  56.3767 14.14732495675096
Epoch (UTC): 06 May 2021 22:25:44
Eccentricity: 0.0007012
inclination: 71.0007°
perigee height: 838 km
apogee height: 848 km
right ascension of ascending node: 325.8306°
argument of perigee: 303.6686°
revolutions per day: 14.14732495
mean anomaly at epoch: 56.3767°
orbit number at epoch: 67509

The dashed part of the orbit path shows where the satellite is in the earth's shadow,  

DLR